DELTA 1 DEB

Satellite information

Favourite Embed

Satellite Type and Status

DEBRISIN ORBIT

Key statistics

Satellite DELTA 1 DEB at a glance.

Uptime

17451

Days in orbit

Revolutions

≈ 14.0

Per day

Orbit

SSO

Sun Synchronous Orbit

Inclination

99.2

Latest

Satellite identification and parameters

Extended collection of information and parameters for DELTA 1 DEB.

Object identification

Identified? True

Debris? True

Object name: DELTA 1 DEB

International designator: 1978-026EQ

Object number (NORAD): 12373

Object ID (CCSDS): 12373

Country: UNITED STATES OF AMERICA (US)

Current information (Y/N): Y

RCS size: SMALL

Orbital parameters

Period: 102.631 minutes

Inclination: 99.2007 deg

SMA: 7261.28 km

Apoapsis: 893.829 km

Periapsis: 872.46 km

RAAN: 314.4605 deg

Eccentricy: 0.00147145

Argument of periapsis: 15.8932 deg

Mean anomaly: 0.1159 deg

Mean motion: 14.0308191 rev/day

Mean motion (dot): 0.00000386 rev/day2

B* drag term: 0.00027748132 1/REarth

Two-line elements (TLE)

Creation date: Dec. 13, 2025, 5:47 p.m.

Reference frame: TEME

Reference center: EARTH

Epoch: Dec. 13, 2025, 4:36 a.m. UTC

TLE line 0: 0 DELTA 1 DEB

TLE line 1: 1 12373U 78026EQ 25347.19193589 .00000386 00000-0 27748-3 0 9993

TLE line 2: 2 12373 99.2007 314.4605 0014715 15.8932 0.1159 14.03081910265820

Live tracking on map

Real-time ground track for satellite DELTA 1 DEB.

In-orbit conjunctions

A list of the most updated potential collisions computed for object DELTA 1 DEB.

Target Orbit TCA Probability of collision Miss distance Type
FENGYUN 1C DEB SSO 2024-06-16 23:52:18 0.0001197153 44.0 (m) DEBRIS

Associated space launch

Earth observation satellite

DELTA 1 DEB was lifted into orbit during the mission ‘Delta 2910 | Landsat 3’, on board a Delta 2910 space rocket.

The launch took place on March 5, 1978, 5:54 p.m. from Space Launch Complex 2W.

For more information about the launch, click the button.

Launch to space Delta 2910 | Landsat 3
Delta 2910 | Landsat 3

Agency: N/A

Status: Launch Successful

Launch date: March 5, 1978, 5:54 p.m. UTC

Rocket: Delta 2910

Launch pad: Space Launch Complex 2W

Location: Vandenberg SFB, CA, USA

...

Latest news about this satellite

There are no fresh news available about this satellite. Check back as we update our databases every day.


Newsletter sign-up

Weekly statistics, charts and insights to help you stay on top of the space industry.